Hourly Data Report for September 11, 2017

All times are specified in Local Standard Time (LST). Add 1 hour to adjust for Daylight Saving Time where and when it is observed.

KOUCHIBOUGUAC CS
NEW BRUNSWICK

46°47'00.000" N
65°01'00.000" W
21.00 m
8102328
71670
AKC

Download Data

Hourly Data (September 2017)
Hourly Data Report for September 11, 2017
Temp Definition
°C
Dew Point Temp Definition
°C
Rel Hum Definition
%
Wind Dir Definition
10's deg

Wind Spd Definition
km/h
Visibility Definition
km
Stn Press Definition
kPa
Hmdx Definition


Wind Chill Definition


Weather Definition


TIME
00:00 12.1 9.9 86 34 7   101.73     LegendNANA
01:00 11.5 10.9 96 30 2   101.72     LegendNANA
02:00 11.5 10.8 96 29 5   101.68     LegendNANA
03:00 11.6 11.1 97 27 3   101.66     LegendNANA
04:00 11.5 11.1 98 19 3   101.60     LegendNANA
05:00 11.6 11.2 98 28 4   101.58     LegendNANA
06:00 11.2 10.7 97 24 3   101.63     LegendNANA
07:00 11.6 10.7 94 29 3   101.64     LegendNANA
08:00 12.4 11.6 95 32 5   101.67     LegendNANA
09:00 13.7 12.2 91 33 14   101.64     LegendNANA
10:00 15.2 11.8 80 36 17   101.69     LegendNANA
11:00 16.3 11.4 73 36 20   101.73     LegendNANA
12:00 17.6 11.3 67 1 15   101.65     LegendNANA
13:00 18.7 10.6 60 1 17   101.57     LegendNANA
14:00 19.5 10.4 56 35 17   101.50     LegendNANA
15:00 18.8 11.8 64 5 9   101.47     LegendNANA
16:00 18.0 11.7 66 5 6   101.41     LegendNANA
17:00 17.4 12.2 72 6 5   101.39     LegendNANA
18:00 15.4 11.7 79 5 3   101.38     LegendNANA
19:00 12.9 10.8 87 36 4   101.38     LegendNANA
20:00 10.8 10.2 96   0   101.38     LegendNANA
21:00 9.5 9.1 97 17 2   101.36     LegendNANA
22:00 8.4 8.1 98 0 1   101.31     LegendNANA
23:00 7.8 7.6 98 20 2   101.37     LegendNANA

Notes on Data Quality.

Legend

  • E = Estimated
  • M = Missing
  • NA = Not Available
  • ‡ = Partner data that is not subject to review by the National Climate Archives
Date modified: